2 20439 098.2434 251.2597 0010162 214.0848 145.9673 14.31804182976298
LO-19
1 20442U 90005G 08275.53157241 .00000103 00000-0 53363-4 0 03549
2 20442 098.2123 258.4316 0011240 214.3487 145.6989 14.32042290976297
AO-27
1 22825U 93061C 08276.59173585 -.00000065 00000-0 -89427-5 0 746
2 22825 098.3991 232.6532 0007603 307.6024 052.4466 14.29247396783115
IO-26
1 22826U 93061D 08275.85713272 -.00000013 00000-0 11469-4 0 7860
2 22826 098.3904 232.8061 0008366 307.1129 052.9303 14.29497507783102
GO-32
1 25397U 98043D 08276.82080076 -.00000032 00000-0 40013-5 0 7115
2 25397 098.3548 306.6208 0000567 328.1476 031.9657 14.23148798531523
NO-44
1 26931U 01043C 08276.82023626 .00000089 00000-0 66980-4 0 9913
2 26931 067.0552 007.3778 0007229 261.9660 098.0623 14.29534898365791
SO-50
1 27607U 02058C 08276.59873398 -.00000167 00000-0 -32747-5 0 7129
2 27607 064.5576 087.4233 0085777 258.7138 100.4292 14.71382024310770
CO-55
1 27844U 03031E 08276.56522489 .00000032 00000-0 35084-4 0 4080
2 27844 098.7184 283.3539 0010069 161.4003 198.7549 14.20598663272680
CO-57
1 27848U 03031J 08276.50734315 .00000010 00000-0 25168-4 0 3594
2 27848 098.7186 282.3745 0009621 166.2831 193.8605 14.20406343272646
AO-51
1 28375U 04025K 08276.56568593 -.00000001 00000-0 12295-4 0 2129
2 28375 098.0666 295.0756 0083217 186.5216 173.4903 14.40619476223866
CO-56
1 28941U 06005C 08276.62158868 .00028127 27116-5 18655-3 0 4278
2 28941 098.1184 042.4913 0149535 009.7122 350.7185 15.62037867146788
CP3
1 31128U 07012M 08275.87449748 -.00000047 00000-0 00000-0 0 04478
2 31128 098.0301 334.7422 0102803 005.7781 354.4564 14.51977646077415
CP4
1 31132U 07012Q 08275.74309537 .00000112 00000-0 35221-4 0 04288
2 31132 098.0318 337.2981 0085269 358.5163 001.5766 14.55145109077447
CO-65
1 32785U 08021C 08276.78716700 -.00000086 00000-0 -41506-5 0 1736
2 32785 097.9834 336.3824 0015748 143.1898 217.0389 14.81395759 23338
NOAA-10
1 16969U 86073A 08276.19561953 -.00000121 00000-0 -31279-4 0 3117
2 16969 098.7174 297.9297 0011642 227.1527 132.8675 14.27368647146702
NOAA-11
1 19531U 88089A 08275.87990022 .00000094 00000-0 71183-4 0 3420
2 19531 098.7970 003.7047 0012080 121.8378 238.3992 14.14878471 32997
NOAA-12
1 21263U 91032A 08275.95855501 .00000031 00000-0 31865-4 0 08775
2 21263 098.7725 277.9268 0012249 171.3051 188.8342 14.25548051903608
MET-3/5
1 21655U 91056A 08275.93004916 .00000051 00000-0 10000-3 0 06025
2 21655 082.5573 028.9554 0014560 104.7804 255.4932 13.17016501823631
MET-2/21
1 22782U 93055A 08276.45151179 .00000082 00000-0 60714-4 0 2646
2 22782 082.5514 026.4706 0022386 353.5463 006.5405 13.83632509761962
OKEAN-4
1 23317U 94066A 08275.89272906 .00000218 00000-0 23999-4 0 07104
2 23317 082.5395 215.4930 0023341 132.1682 228.1524 14.82638441754090
NOAA-14
1 23455U 94089A 08275.70802961 -.00000226 00000-0 -96028-4 0 03304
2 23455 098.9384 347.9633 0009298 197.7742 162.3115 14.13747424709408
NOAA-15
1 25338U 98030A 08276.03568114 -.00000159 00000-0 -49782-4 0 6451
2 25338 098.5641 265.2278 0011720 090.1425 270.1095 14.24725637540015
RESURS
1 25394U 98043A 08276.74204131 .00000004 00000-0 19683-4 0 369
2 25394 098.3763 315.7434 0000514 257.1187 102.9935 14.24171610531756
FENGYUN1
1 25730U 99025A 08275.95446316 .00000503 00000-0 32168-3 0 06338
2 25730 098.7324 248.1659 0019508 225.1605 134.7979 14.07795355483989
OKEAN-0
1 25860U 99039A 08275.86386985 .00000025 00000-0 11123-4 0 04888
2 25860 097.7608 261.7478 0000806 039.8434 320.2832 14.73537706495102
NOAA-16
1 26536U 00055A 08276.02775357 .00000233 00000-0 15160-3 0 1199
2 26536 099.1663 267.5961 0009748 287.6877 072.3216 14.12499220413853
NOAA-17
1 27453U 02032A 08275.71460550 .00000125 00000-0 72704-4 0 01161
2 27453 098.5238 337.1976 0012407 154.0626 206.1194 14.24006312325963
NOAA-18
1 28654U 05018A 08276.04385519 .00000231 00000-0 15228-3 0 6025
2 28654 098.8751 215.6920 0014709 015.4694 344.6971 14.11196725173541
HUBBLE
1 20580U 90037B 08275.57325945 .00000293 00000-0 98270-5 0 02411
2 20580 028.4702 349.3232 0003700 075.8086 284.2915 15.00411546810973
PO-34
1 25520U 98064B 08275.95565774 .00000374 00000-0 86382-5 0 01034
2 25520 028.4597 183.9558 0005078 009.4757 350.5924 15.17234552549395
ISS
1 25544U 98067A 08276.34121725 .00012216 00000-0 94369-4 0 3674
2 25544 051.6426 186.9111 0006256 170.8612 290.5125 15.72371737565392
CO-58
1 28895U 05043F 08276.67313571 .00000110 00000-0 32549-4 0 1340
2 28895 098.0830 168.0657 0019025 075.4056 284.9267 14.59700312156168
FALCON
1 30776U 07006E 08275.92279775 .00000255 00000-0 21608-4 0 04141
2 30776 035.4342 226.1343 0001013 256.7791 103.2821 15.03061376086215
MAST
1 31126U 07012K 08275.19089212 .00000025 00000-0 16428-4 0 04286
2 31126 098.0303 335.3293 0094703 004.1012 356.0942 14.53447514077413
CAPE1
1 31130U 07012P 08276.41938177 .00000164 00000-0 48764-4 0 4192
2 31130 098.0303 335.2723 0103052 004.0905 356.1118 14.51994414 77288
COMPASS
1 32787U 08021E 08275.43014766 .00000295 00000-0 44476-4 0 01651
2 32787 097.9785 334.9597 0016302 149.1971 211.0211 14.81468036023136
AAUSAT2
1 32788U 08021F 08275.89138636 .00000250 00000-0 38650-4 0 01721
2 32788 097.9789 335.4384 0016259 148.6308 211.5851 14.81579252023206
DO-64
1 32789U 08021G 08275.90359771 .00000295 00000-0 44485-4 0 01923
2 32789 097.9811 335.4892 0016355 147.4264 212.7960 14.81483841023204
CO-66
1 32791U 08021J 08275.37759082 .00000038 00000-0 11730-4 0 01591
2 32791 097.9821 334.9278 0016684 147.2655 212.9596 14.81319337023099
RS-30
1 32953U 08025A 08276.78348605 .00000010 00000-0 00000 0 0 1230
2 32953 082.4990 056.6670 0019267 023.2329 336.9616 12.42997780 16417
/EX
1
0
SB KEPS @ AMSAT $ORB08276.O
Orbital Elements 08276.OSCAR
HR AMSAT ORBITAL ELEMENTS FOR OSCAR SATELLITES
FROM WA5QGD FORT WORTH,TX October 2, 2008
Send Subscribe/unsubscribe to KEPS at
http://www.amsat.org/mailman/listinfo/keps
BID: ORB08276.O
TO ALL RADIO AMATEURS BT
Satellite: AO-07
Catalog number: 07530
Epoch time: 08275.67563507
Element set: 291
Inclination: 101.4584 deg
RA of node: 303.5796 deg
Eccentricity: 0.0012082
Arg of perigee: 055.1372 deg
Mean anomaly: 305.0834 deg
Mean motion: 12.53574248 rev/day
Decay rate: -2.7e-07 rev/day^2
Epoch rev: 55032
Checksum: 287
Satellite: AO-10
Catalog number: 14129
Epoch time: 08274.07244828
Element set: 0570
Inclination: 026.0350 deg
RA of node: 193.1617 deg
Eccentricity: 0.5962495
Arg of perigee: 161.1534 deg
Mean anomaly: 236.8611 deg
Mean motion: 02.05868011 rev/day
Decay rate: -6.9e-07 rev/day^2
Epoch rev: 19026
Checksum: 294
Satellite: UO-11
Catalog number: 14781
Epoch time: 08276.16699058
Element set: 779
Inclination: 098.1446 deg
RA of node: 311.7484 deg
Eccentricity: 0.0010165
Arg of perigee: 088.7997 deg
Mean anomaly: 271.4523 deg
Mean motion: 14.79666500 rev/day
Decay rate: 9.1e-07 rev/day^2
Epoch rev: 31967
Checksum: 349
Satellite: RS-15
Catalog number: 23439
Epoch time: 08275.62118943
Element set: 0208
Inclination: 064.8196 deg
RA of node: 322.9398 deg
Eccentricity: 0.0146043
Arg of perigee: 102.2356 deg
Mean anomaly: 259.4965 deg
Mean motion: 11.27552327 rev/day
Decay rate: -3.9e-07 rev/day^2
Epoch rev: 56696
Checksum: 331
Satellite: FO-29
Catalog number: 24278
Epoch time: 08275.76064273
Element set: 0876
Inclination: 098.5771 deg
RA of node: 178.0623 deg
Eccentricity: 0.0349948
Arg of perigee: 299.7808 deg
Mean anomaly: 056.8950 deg
Mean motion: 13.52940136 rev/day
Decay rate: 1.01e-06 rev/day^2
Epoch rev: 59880
Checksum: 365
Satellite: SO-33
Catalog number: 25509
Epoch time: 08276.76294951
Element set: 293
Inclination: 031.4332 deg
RA of node: 068.0855 deg
Eccentricity: 0.0355335
Arg of perigee: 247.7340 deg
Mean anomaly: 108.5255 deg
Mean motion: 14.28227775 rev/day
Decay rate: -1.5e-07 rev/day^2
Epoch rev: 51900
Checksum: 310
Satellite: AO-40
Catalog number: 26609
Epoch time: 08275.47787406
Element set: 127
Inclination: 007.8630 deg
RA of node: 057.5649 deg
Eccentricity: 0.7936977
Arg of perigee: 128.9884 deg
Mean anomaly: 332.9342 deg
Mean motion: 01.25585697 rev/day
Decay rate: -3.81e-06 rev/day^2
Epoch rev: 3637
Checksum: 366
Satellite: VO-52
Catalog number: 28650
Epoch time: 08276.72892642
Element set: 46
Inclination: 097.7789 deg
RA of node: 340.3269 deg
Eccentricity: 0.0027538
Arg of perigee: 147.6503 deg
Mean anomaly: 212.6365 deg
Mean motion: 14.81501498 rev/day
Decay rate: -2.83e-06 rev/day^2
Epoch rev: 18452
Checksum: 336
Satellite: PO-63
Catalog number: 29712
Epoch time: 08276.84034452
Element set: 845
Inclination: 097.8651 deg
RA of node: 332.9509 deg
Eccentricity: 0.0015067
Arg of perigee: 035.2411 deg
Mean anomaly: 324.9783 deg
Mean motion: 14.80280129 rev/day
Decay rate: 3.62e-06 rev/day^2
Epoch rev: 9339
Checksum: 318
/EX
SB KEPS @ AMSAT $ORB08276.D
Orbital Elements 08276.MICROS
HR AMSAT ORBITAL ELEMENTS FOR THE MICROSATS
FROM WA5QGD FORT WORTH,TX October 2, 2008
Send Subscribe/unsubscribe to KEPS at
http://www.amsat.org/mailman/listinfo/keps
BID: ORB08276.D
TO ALL RADIO AMATEURS BT
Satellite: AO-16
Catalog number: 20439
Epoch time: 08276.61999292
Element set: 431
Inclination: 098.2434 deg
RA of node: 251.2597 deg
Eccentricity: 0.0010162
Arg of perigee: 214.0848 deg
Mean anomaly: 145.9673 deg
Mean motion: 14.31804182 rev/day
Decay rate: 1.4e-07 rev/day^2
Epoch rev: 97629
Checksum: 317
Satellite: LO-19
Catalog number: 20442
Epoch time: 08275.53157241
Element set: 0354
Inclination: 098.2123 deg
RA of node: 258.4316 deg
Eccentricity: 0.0011240
Arg of perigee: 214.3487 deg
Mean anomaly: 145.6989 deg
Mean motion: 14.32042290 rev/day
Decay rate: 1.03e-06 rev/day^2
Epoch rev: 97629
Checksum: 291
Satellite: AO-27
Catalog number: 22825
Epoch time: 08276.59173585
Element set: 74
Inclination: 098.3991 deg
RA of node: 232.6532 deg
Eccentricity: 0.0007603
Arg of perigee: 307.6024 deg
Mean anomaly: 052.4466 deg
Mean motion: 14.29247396 rev/day
Decay rate: -6.5e-07 rev/day^2
Epoch rev: 78311
Checksum: 322
Satellite: IO-26
Catalog number: 22826
Epoch time: 08275.85713272
Element set: 786
Inclination: 098.3904 deg
RA of node: 232.8061 deg
